Location: Clatteringshaws Loch
(55.0508°N, 4.2860°W)
Time: 16:18:54
(UTC+01:00)

Amateur Radio Satellites - All Passes

Search period start: 31 August 2015 15:48
Search period end: 01 September 2015 15:48
Location: Clatteringshaws Loch, 55.0508°N, 4.2860°W

Satellite Date Start Highest point End Downlink Frequencies (MHz)
Time Altitude Azimuth
GONETS M04 31 Aug 16:09:08 16:16:57 37° 277° (W) 16:24:40
CUTE-I 31 Aug 16:11:20 16:13:42 13° 44° (NE) 16:16:15 437.470
ITUPSAT 1 31 Aug 16:11:30 16:16:09 52° 293° (WNW) 16:20:46 437.325
STARS 31 Aug 16:12:32 16:16:25 29° 94° (E) 16:20:19 437.465
TISAT 1 31 Aug 16:16:19 16:18:17 13° 309° (NW) 16:20:08 437.305
JAS-2 31 Aug 16:27:27 16:34:42 40° 269° (W) 16:41:56 435.910
Cosmos 2491 31 Aug 16:28:54 16:30:24 11° 13° (NNE) 16:32:05 435.465 / 435.565
KKS-1 31 Aug 16:29:14 16:33:43 60° 102° (ESE) 16:38:09 437.445
AO-7 31 Aug 16:31:03 16:39:20 62° 256° (WSW) 16:47:37 29.400- 29.500
MOZHAYETS 4 31 Aug 16:37:37 16:40:32 17° 86° (E) 16:43:33
BEESAT 31 Aug 16:45:30 16:49:40 30° 300° (WNW) 16:53:45 436.000
HO-68 31 Aug 16:45:39 16:47:24 11° 17° (NNE) 16:49:18 435.675
HORYU 2 31 Aug 16:46:01 16:50:21 45° 261° (W) 16:54:42 437.375
BEESAT 3 31 Aug 16:55:17 16:59:21 77° 134° (SE) 17:03:28 437.485
RS-15 31 Aug 17:01:34 17:11:52 50° 117° (ESE) 17:22:43 29.354- 29.394
Cubesat XI-IV 31 Aug 17:03:30 17:07:49 26° 55° (NE) 17:12:13 437.490
BEESAT 2 31 Aug 17:06:23 17:10:30 76° 135° (SE) 17:14:38 435.950
SWISSCUBE 31 Aug 17:11:51 17:15:17 20° 306° (NW) 17:18:37 437.505
Cosmos 2499 31 Aug 17:25:50 17:33:54 41° 275° (W) 17:41:26 435.465 / 435.565
AIST 2 31 Aug 17:38:38 17:42:40 43° 127° (SE) 17:46:44 435.215
AIST 1 31 Aug 17:44:37 17:45:15 10° 51° (NE) 17:46:05
CUTE-I 31 Aug 17:47:38 17:52:43 49° 65° (ENE) 17:57:52 437.470
STARS 31 Aug 17:48:45 17:53:02 46° 294° (WNW) 17:57:18 437.465
ITUPSAT 1 31 Aug 17:51:05 17:53:07 12° 313° (NW) 17:55:01 437.325
KKS-1 31 Aug 18:06:21 18:10:03 25° 301° (WNW) 18:13:41 437.445
MOZHAYETS 4 31 Aug 18:13:49 18:18:25 83° 287° (WNW) 18:22:59
Cosmos 2491 31 Aug 18:25:00 18:31:41 24° 46° (NE) 18:38:34 435.465 / 435.565
HO-68 31 Aug 18:27:20 18:32:44 24° 43° (NE) 18:38:17 435.675
AO-7 31 Aug 18:28:50 18:34:09 17° 280° (W) 18:39:04 29.400- 29.500
CUBESAT XI-V 31 Aug 18:29:22 18:32:51 21° 88° (E) 18:36:25 437.345
BEESAT 3 31 Aug 18:33:57 18:37:39 31° 336° (NNW) 18:41:20 437.485
Cubesat XI-IV 31 Aug 18:42:13 18:47:32 73° 256° (WSW) 18:52:54 437.490
BRITE-PL 31 Aug 18:44:29 18:48:23 29° 60° (ENE) 18:52:36 437.365/2234.400
BEESAT 2 31 Aug 18:45:10 18:48:54 32° 336° (NNW) 18:52:38 435.950
CINEMA 3 31 Aug 18:48:38 18:49:05 10° 43° (NE) 18:49:43 145.822/145.860
CUTE 1.7 + AOD 2 31 Aug 18:58:12 19:00:02 13° 52° (NE) 19:01:59 437.475
CANX-2 31 Aug 19:11:03 19:13:46 17° 56° (NE) 19:16:34 2200.000
RS-15 31 Aug 19:12:46 19:23:54 75° 325° (NW) 19:35:38 29.354- 29.394
GOMX 1 31 Aug 19:15:46 19:19:58 34° 61° (ENE) 19:24:30 467.674
AIST 2 31 Aug 19:17:09 19:21:16 45° 328° (NNW) 19:25:23 435.215
AIST 1 31 Aug 19:19:45 19:24:01 55° 73° (ENE) 19:28:16
Cosmos 2499 31 Aug 19:22:51 19:24:38 11° 299° (WNW) 19:25:54 435.465 / 435.565
STARS 31 Aug 19:27:36 19:28:31 10° 314° (NW) 19:29:18 437.465
CUTE-I 31 Aug 19:28:08 19:33:01 35° 265° (W) 19:37:52 437.470
DOVE 4 31 Aug 19:31:52 19:36:05 32° 60° (ENE) 19:40:32 437.250
SEEDS 31 Aug 19:33:06 19:36:05 19° 57° (ENE) 19:39:09 437.485
O/OREOS (USA 219) 31 Aug 19:42:13 19:46:19 34° 110° (ESE) 19:50:30 437.305
STRAND 1 31 Aug 19:43:36 19:48:00 29° 92° (E) 19:52:26 437.568
MOZHAYETS 4 31 Aug 19:52:04 19:55:02 17° 307° (NW) 19:57:52
COMPASS 1 31 Aug 19:55:24 19:58:44 23° 60° (ENE) 20:02:06 437.405
AAUSAT CUBESAT 2 31 Aug 20:05:56 20:09:20 25° 61° (ENE) 20:12:47 437.432
CUBESAT XI-V 31 Aug 20:06:09 20:10:47 67° 288° (WNW) 20:15:24 437.345
HO-68 31 Aug 20:12:21 20:19:29 71° 65° (ENE) 20:26:40 435.675
BEESAT 3 31 Aug 20:13:28 20:16:36 21° 359° (N) 20:19:44 437.485
CUBEBUG 2 31 Aug 20:15:20 20:18:51 22° 56° (ENE) 20:22:30 437.445
ZACube-1 31 Aug 20:18:29 20:21:10 16° 52° (NE) 20:23:58 437.345
CINEMA 3 31 Aug 20:20:37 20:25:04 40° 64° (ENE) 20:29:43 145.822/145.860
Cosmos 2491 31 Aug 20:21:46 20:30:32 70° 73° (ENE) 20:39:18 435.465 / 435.565
BRITE-PL 31 Aug 20:22:19 20:26:42 51° 262° (W) 20:31:28 437.365/2234.400
UWE-3 31 Aug 20:23:26 20:26:49 21° 56° (NE) 20:30:19 435.000/436.395/437.385
FUNcube-1 31 Aug 20:23:53 20:26:43 17° 54° (NE) 20:29:40 145.935
BEESAT 2 31 Aug 20:24:48 20:27:59 21° 359° (N) 20:31:08 435.950
Cubesat XI-IV 31 Aug 20:25:43 20:28:42 15° 278° (W) 20:31:29 437.490
CUTE 1.7 + AOD 2 31 Aug 20:30:57 20:35:12 64° 71° (ENE) 20:39:28 437.475
DELFI C3 31 Aug 20:34:12 20:36:47 17° 57° (ENE) 20:39:27 145.870
YUBILEINY 31 Aug 20:39:33 20:46:52 32° 80° (E) 20:54:23 435.215
PRISM 31 Aug 20:44:34 20:48:39 63° 103° (ESE) 20:52:44 437.425
CANX-2 31 Aug 20:44:51 20:49:09 89° 255° (WSW) 20:53:29 2200.000
GOMX 1 31 Aug 20:53:33 20:58:00 45° 264° (W) 21:02:48 467.674
AIST 2 31 Aug 20:57:17 21:00:43 23° 351° (N) 21:04:07 435.215
AIST 1 31 Aug 20:58:01 21:01:21 22° 273° (W) 21:04:37
DX 1 31 Aug 21:04:52 21:06:40 13° 49° (NE) 21:08:36 434.975-435.025
HUMSAT D 31 Aug 21:06:53 21:09:41 17° 55° (NE) 21:12:33 437.325/437.525
SEEDS 31 Aug 21:07:11 21:11:26 74° 256° (WSW) 21:15:42 437.485
DOVE 4 31 Aug 21:09:02 21:13:38 50° 262° (W) 21:18:33 437.250
Oscar 11 31 Aug 21:10:31 21:14:41 46° 67° (ENE) 21:18:53 145.826/435.025
UKube-1 31 Aug 21:17:35 21:19:50 14° 51° (NE) 21:22:13 .
50 SAT 31 Aug 21:18:21 21:18:48 10° 51° (NE) 21:19:24 437.505
O/OREOS (USA 219) 31 Aug 21:21:16 21:25:40 45° 310° (NW) 21:30:08 437.305
STRAND 1 31 Aug 21:22:32 21:27:33 57° 293° (WNW) 21:32:32 437.568
AISAT 31 Aug 21:24:58 21:27:02 13° 50° (NE) 21:29:14 437.250
RS-15 31 Aug 21:27:05 21:38:07 53° 357° (N) 21:49:43 29.354- 29.394
COMPASS 1 31 Aug 21:29:57 21:34:07 56° 259° (W) 21:38:17 437.405
AAUSAT CUBESAT 2 31 Aug 21:40:35 21:44:42 52° 260° (W) 21:48:49 437.432
CUBESAT XI-V 31 Aug 21:44:55 21:47:28 15° 309° (NW) 21:49:55 437.345
Cosmos 2504 31 Aug 21:47:12 21:50:29 13° 65° (ENE) 21:54:14 435.465 / 435.565
CUBEBUG 2 31 Aug 21:50:21 21:55:03 78° 256° (WSW) 21:59:52 437.445
VELOX 1 31 Aug 21:51:58 21:55:05 20° 56° (NE) 21:58:19 145.980
BEESAT 3 31 Aug 21:51:58 21:55:35 29° 22° (NNE) 21:59:11 437.485
ZACube-1 31 Aug 21:52:14 21:56:49 74° 73° (ENE) 22:01:27 437.345
CINEMA 3 31 Aug 21:57:47 22:02:16 39° 265° (W) 22:06:56 145.822/145.860
FUNcube-1 31 Aug 21:57:49 22:02:24 80° 72° (ENE) 22:07:02 145.935
UWE-3 31 Aug 21:58:11 22:02:50 81° 256° (WSW) 22:07:35 435.000/436.395/437.385
HO-68 31 Aug 22:01:26 22:07:50 33° 268° (W) 22:14:13 435.675
BEESAT 2 31 Aug 22:03:26 22:07:05 29° 22° (NNE) 22:10:42 435.950
DELFI C3 31 Aug 22:07:18 22:11:22 81° 255° (WSW) 22:15:26 145.870
CUTE 1.7 + AOD 2 31 Aug 22:08:21 22:11:33 20° 271° (W) 22:14:40 437.475
Cosmos 2491 31 Aug 22:19:09 22:26:56 37° 277° (W) 22:34:37 435.465 / 435.565
PRISM 31 Aug 22:20:38 22:23:45 21° 302° (WNW) 22:26:48 437.425
CANX-2 31 Aug 22:23:26 22:25:47 14° 275° (W) 22:27:59 2200.000
YUBILEINY 31 Aug 22:34:07 22:42:57 81° 283° (WNW) 22:51:53 435.215
AIST 2 31 Aug 22:36:53 22:40:26 25° 14° (NNE) 22:43:57 435.215
DX 1 31 Aug 22:37:51 22:42:08 60° 69° (ENE) 22:46:26 434.975-435.025
HUMSAT D 31 Aug 22:40:31 22:44:51 89° 254° (WSW) 22:49:14 437.325/437.525
ESTCUBE 1 31 Aug 22:44:14 22:48:22 38° 64° (ENE) 22:52:33 437.505/2401.250
SEEDS 31 Aug 22:46:33 22:48:04 11° 278° (W) 22:49:24 437.485
Oscar 11 31 Aug 22:47:18 22:51:04 27° 267° (W) 22:54:49 145.826/435.025
50 SAT 31 Aug 22:48:39 22:52:32 54° 70° (ENE) 22:56:25 437.505
UKube-1 31 Aug 22:50:59 22:55:17 71° 71° (ENE) 22:59:37 .
AISAT 31 Aug 22:58:27 23:02:49 63° 70° (ENE) 23:07:15 437.250
SPROUT 31 Aug 22:58:32 23:01:28 18° 56° (NE) 23:04:30 437.525
CUBEBUG 1 31 Aug 23:00:22 23:04:27 42° 66° (ENE) 23:08:36 437.445
STRAND 1 31 Aug 23:03:06 23:05:50 14° 314° (NW) 23:08:26 437.568
UNISAT 6 31 Aug 23:03:09 23:06:51 23° 90° (E) 23:10:32 437.425
O/OREOS (USA 219) 31 Aug 23:03:35 23:06:19 15° 334° (NNW) 23:08:59 437.305
CUSAT 1 31 Aug 23:12:42 23:13:32 10° 71° (ENE) 23:14:39 437.405
QB50P1 31 Aug 23:15:49 23:17:35 12° 83° (E) 23:19:33 145.935-145.965
VELOX 1 31 Aug 23:26:45 23:31:10 79° 255° (WSW) 23:35:38 145.980
BEESAT 3 31 Aug 23:29:51 23:33:56 86° 226° (SW) 23:37:58 437.485
CUBEBUG 2 31 Aug 23:30:03 23:32:37 14° 278° (W) 23:35:02 437.445
ZACube-1 31 Aug 23:30:23 23:33:43 19° 273° (W) 23:36:59 437.345
TIGRISAT 31 Aug 23:31:32 23:35:52 38° 96° (E) 23:40:06 435.000
Cosmos 2504 31 Aug 23:32:50 23:40:38 48° 88° (E) 23:48:49 435.465 / 435.565
FUNcube-1 31 Aug 23:36:10 23:39:19 18° 274° (W) 23:42:23 145.935
UWE-3 31 Aug 23:37:34 23:40:11 14° 277° (W) 23:42:40 435.000/436.395/437.385
RS-15 31 Aug 23:41:07 23:52:39 67° 28° (NNE) 00:04:44 29.354- 29.394
BEESAT 2 31 Aug 23:41:26 23:45:34 86° 225° (SW) 23:49:37 435.950
DELFI C3 31 Aug 23:45:37 23:47:10 12° 276° (W) 23:48:33 145.870
ANTELSAT 31 Aug 23:48:24 23:52:58 54° 100° (E) 23:57:25 437.575/2403.000
TISAT 1 01 Sep 00:02:30 00:06:23 37° 65° (ENE) 00:10:20 437.305
ITUPSAT 1 01 Sep 00:12:16 00:15:02 16° 50° (NE) 00:17:56 437.325
DX 1 01 Sep 00:15:22 00:18:45 21° 269° (W) 00:22:07 434.975-435.025
AIST 2 01 Sep 00:15:31 00:19:43 60° 37° (NE) 00:23:51 435.215
POLYITAN 1 01 Sep 00:15:35 00:19:41 40° 97° (E) 00:23:47 437.675
POPSAT HIP 1 01 Sep 00:18:18 00:22:25 41° 98° (E) 00:26:30 437.405
HUMSAT D 01 Sep 00:18:50 00:21:17 14° 275° (W) 00:23:35 437.325/437.525
DUCHIFAT 1 01 Sep 00:19:01 00:23:06 41° 98° (E) 00:27:10 145.980
AUBIESAT-1 01 Sep 00:19:13 00:23:15 50° 106° (ESE) 00:26:57 437.475
ESTCUBE 1 01 Sep 00:21:08 00:25:17 36° 264° (W) 00:29:26 437.505/2401.250
M-CUBED/EXP-1 PRIME 01 Sep 00:24:13 00:28:25 65° 109° (ESE) 00:32:15 437.505
50 SAT 01 Sep 00:24:19 00:27:22 20° 270° (W) 00:30:20 437.505
BUGSAT 1 01 Sep 00:27:55 00:31:47 34° 95° (E) 00:35:42 437.445
UKube-1 01 Sep 00:28:52 00:31:56 18° 271° (W) 00:34:53 .
SPROUT 01 Sep 00:32:44 00:37:04 81° 257° (WSW) 00:41:25 437.525
YUBILEINY 01 Sep 00:34:05 00:41:26 28° 311° (NW) 00:48:41 435.215
QB50P2 01 Sep 00:35:08 00:39:25 60° 102° (ESE) 00:43:42 145.880/145.840
NANOSAT C BR1 01 Sep 00:36:21 00:40:37 59° 101° (E) 00:44:53 145.865
AISAT 01 Sep 00:36:25 00:39:50 21° 270° (W) 00:43:11 437.250
CUBEBUG 1 01 Sep 00:37:07 00:40:58 30° 266° (W) 00:44:48 437.445
UNISAT 6 01 Sep 00:39:26 00:44:02 60° 290° (WNW) 00:48:29 437.425
BEESAT 01 Sep 00:44:15 00:48:06 25° 58° (ENE) 00:52:01 436.000
QB50P1 01 Sep 00:49:55 00:54:15 80° 104° (ESE) 00:58:33 145.935-145.965
CUSAT 1 01 Sep 00:50:09 00:54:25 60° 97° (E) 01:00:12 437.405
SO-50 01 Sep 00:50:40 00:51:13 10° 108° (ESE) 00:52:01 436.795
VELOX 1 01 Sep 01:06:28 01:08:33 13° 276° (W) 01:10:28 145.980
TIGRISAT 01 Sep 01:08:19 01:12:37 37° 296° (WNW) 01:16:47 435.000
BEESAT 3 01 Sep 01:08:43 01:11:19 16° 244° (WSW) 01:13:46 437.485
SWISSCUBE 01 Sep 01:09:26 01:13:51 40° 64° (ENE) 01:18:19 437.505
DANDE 01 Sep 01:16:46 01:20:36 64° 99° (E) 01:25:52 436.750
BEESAT 2 01 Sep 01:20:24 01:23:03 16° 244° (WSW) 01:25:34 435.950
Cosmos 2504 01 Sep 01:24:41 01:32:51 56° 292° (WNW) 01:41:21 435.465 / 435.565
ANTELSAT 01 Sep 01:25:33 01:29:31 28° 300° (WNW) 01:33:21 437.575/2403.000
GONETS M04 01 Sep 01:30:01 01:34:51 17° 69° (ENE) 01:40:04
TISAT 1 01 Sep 01:38:20 01:42:12 33° 265° (W) 01:46:04 437.305
PCSat 01 Sep 01:40:39 01:43:33 15° 106° (ESE) 01:46:40 145.827
STARS 01 Sep 01:42:43 01:44:40 13° 49° (NE) 01:46:46 437.465
ITUPSAT 1 01 Sep 01:47:27 01:52:12 71° 71° (ENE) 01:56:59 437.325
POLYITAN 1 01 Sep 01:51:38 01:55:31 32° 297° (WNW) 01:59:21 437.675
RS-15 01 Sep 01:53:55 02:05:25 65° 236° (SW) 02:17:19 29.354- 29.394
AUBIESAT-1 01 Sep 01:54:13 01:57:44 26° 308° (NW) 02:00:59 437.475
POPSAT HIP 1 01 Sep 01:54:20 01:58:11 31° 297° (WNW) 02:01:58 437.405
AIST 2 01 Sep 01:54:23 01:58:04 29° 238° (WSW) 02:01:40 435.215
DUCHIFAT 1 01 Sep 01:54:59 01:58:49 31° 297° (WNW) 02:02:36 145.980
KKS-1 01 Sep 01:58:56 02:02:26 23° 58° (ENE) 02:06:01 437.445
M-CUBED/EXP-1 PRIME 01 Sep 01:59:28 02:02:49 22° 310° (NW) 02:05:55 437.505
BUGSAT 1 01 Sep 02:03:21 02:07:18 37° 295° (WNW) 02:11:12 437.445
QB50P2 01 Sep 02:11:33 02:15:00 23° 301° (WNW) 02:18:22 145.880/145.840
SPROUT 01 Sep 02:11:52 02:13:55 13° 276° (W) 02:15:49 437.525
NANOSAT C BR1 01 Sep 02:12:42 02:16:09 23° 301° (WNW) 02:19:31 145.865
UNISAT 6 01 Sep 02:17:41 02:19:56 13° 311° (NW) 02:22:02 437.425
BEESAT 01 Sep 02:20:52 02:25:38 64° 258° (WSW) 02:30:24 436.000
SO-50 01 Sep 02:26:05 02:30:45 49° 127° (SE) 02:35:34 436.795
QB50P1 01 Sep 02:26:35 02:29:39 19° 304° (NW) 02:32:36 145.935-145.965
O/OREOS (USA 219) 01 Sep 02:26:37 02:29:14 15° 25° (NNE) 02:31:56 437.305
Cosmos 2499 01 Sep 02:31:44 02:33:53 11° 62° (ENE) 02:36:35 435.465 / 435.565
CUSAT 1 01 Sep 02:33:32 02:37:37 28° 307° (NW) 02:42:42 437.405
Oscar 19 01 Sep 02:35:19 02:40:21 47° 98° (E) 02:45:23 437.125/150
YUBILEINY 01 Sep 02:39:33 02:42:27 12° 342° (NNW) 02:45:08 435.215
SWISSCUBE 01 Sep 02:47:19 02:51:46 37° 264° (W) 02:56:12 437.505
DANDE 01 Sep 03:01:05 03:04:32 23° 309° (NW) 03:08:46 436.750
Gurwin Techsat 1B 01 Sep 03:15:07 03:20:03 38° 95° (E) 03:25:00 435.225
STARS 01 Sep 03:15:56 03:20:19 61° 69° (ENE) 03:24:44 437.465
PCSat 01 Sep 03:20:45 03:26:06 67° 127° (SE) 03:31:32 145.827
Cosmos 2504 01 Sep 03:21:29 03:27:28 20° 319° (NW) 03:33:19 435.465 / 435.565
GONETS M04 01 Sep 03:21:31 03:29:58 61° 93° (E) 03:38:33
ITUPSAT 1 01 Sep 03:26:58 03:30:37 21° 271° (W) 03:34:12 437.325
JAS-2 01 Sep 03:29:22 03:35:48 33° 88° (E) 03:41:42 435.910
ITAMSAT 1 01 Sep 03:33:53 03:38:48 42° 97° (E) 03:43:45 435.822/435.867
KKS-1 01 Sep 03:34:16 03:38:43 65° 258° (WSW) 03:43:13 437.445
MOZHAYETS 4 01 Sep 03:46:00 03:50:11 36° 64° (ENE) 03:54:24
BEESAT 01 Sep 04:02:56 04:04:32 11° 279° (W) 04:05:54 436.000
O/OREOS (USA 219) 01 Sep 04:05:28 04:09:54 44° 49° (NE) 04:14:19 437.305
SO-50 01 Sep 04:06:36 04:11:23 50° 329° (NNW) 04:16:15 436.795
CUBESAT XI-V 01 Sep 04:06:57 04:07:21 10° 46° (NE) 04:07:54 437.345
RS-15 01 Sep 04:07:27 04:15:50 22° 260° (W) 04:23:51 29.354- 29.394
Oscar 19 01 Sep 04:14:53 04:19:39 37° 299° (WNW) 04:24:22 437.125/150
Cosmos 2499 01 Sep 04:16:52 04:24:44 43° 85° (E) 04:32:58 435.465 / 435.565
AO-7 01 Sep 04:24:26 04:31:35 31° 91° (E) 04:38:50 29.400- 29.500
HORYU 2 01 Sep 04:30:14 04:33:42 22° 90° (E) 04:37:14 437.375
YUBILEINY 01 Sep 04:42:11 04:44:41 11° 17° (NNE) 04:47:24 435.215
STARS 01 Sep 04:53:39 04:57:09 22° 270° (W) 05:00:36 437.465
Gurwin Techsat 1B 01 Sep 04:55:06 05:00:11 46° 296° (WNW) 05:05:14 435.225
PCSat 01 Sep 05:04:47 05:09:54 40° 329° (NNW) 05:15:01 145.827
ITAMSAT 1 01 Sep 05:13:30 05:18:21 40° 298° (WNW) 05:23:08 435.822/435.867
JAS-2 01 Sep 05:14:11 05:21:33 69° 293° (WNW) 05:28:03 435.910
KKS-1 01 Sep 05:15:21 05:16:22 10° 279° (W) 05:17:09 437.445
GONETS M04 01 Sep 05:19:02 05:27:18 44° 298° (WNW) 05:35:35
MOZHAYETS 4 01 Sep 05:23:03 05:27:24 39° 264° (W) 05:31:44
STRAND 1 01 Sep 05:29:32 05:33:00 19° 51° (NE) 05:36:35 437.568
CUBESAT XI-V 01 Sep 05:39:25 05:43:45 44° 67° (ENE) 05:48:10 437.345
O/OREOS (USA 219) 01 Sep 05:45:03 05:49:18 36° 250° (WSW) 05:53:29 437.305
SO-50 01 Sep 05:48:36 05:52:54 28° 353° (N) 05:57:14 436.795
Oscar 19 01 Sep 05:57:07 05:57:44 10° 320° (NW) 05:58:10 437.125/150
CUTE-I 01 Sep 05:59:52 06:00:50 11° 78° (ENE) 06:02:05 437.470
HORYU 2 01 Sep 06:06:18 06:10:45 61° 290° (WNW) 06:15:09 437.375
PRISM 01 Sep 06:07:19 06:10:17 20° 57° (ENE) 06:13:20 437.425
Cosmos 2499 01 Sep 06:09:04 06:17:40 64° 289° (WNW) 06:26:33 435.465 / 435.565
AO-7 01 Sep 06:17:01 06:25:23 82° 295° (WNW) 06:33:41 29.400- 29.500
Gurwin Techsat 1B 01 Sep 06:36:47 06:39:03 13° 317° (NW) 06:41:10 435.225
YUBILEINY 01 Sep 06:38:37 06:45:46 27° 48° (NE) 06:53:03 435.215
PCSat 01 Sep 06:50:19 06:54:41 24° 354° (N) 06:59:03 145.827
Cubesat XI-IV 01 Sep 06:52:23 06:56:51 27° 91° (E) 07:01:22 437.490
ITAMSAT 1 01 Sep 06:55:13 06:56:39 11° 319° (NW) 06:57:54 435.822/435.867
JAS-2 01 Sep 06:59:50 07:05:25 23° 316° (NW) 07:10:29 435.910
STRAND 1 01 Sep 07:06:27 07:11:33 81° 72° (ENE) 07:16:42 437.568
CUBESAT XI-V 01 Sep 07:17:14 07:21:22 31° 266° (W) 07:25:28 437.345
Cosmos 2504 01 Sep 07:18:37 07:21:28 12° 23° (NNE) 07:24:33 435.465 / 435.565
GONETS M04 01 Sep 07:21:59 07:27:12 16° 327° (NNW) 07:32:12
SO-50 01 Sep 07:30:09 07:34:39 33° 17° (NNE) 07:39:08 436.795
CUTE-I 01 Sep 07:37:01 07:42:16 55° 101° (E) 07:47:30 437.470
Cosmos 2491 01 Sep 07:40:09 07:44:58 17° 69° (ENE) 07:50:09 435.465 / 435.565
PRISM 01 Sep 07:41:16 07:45:21 67° 256° (WSW) 07:49:27 437.425
HORYU 2 01 Sep 07:44:25 07:46:35 13° 311° (NW) 07:48:36 437.375
CUSAT 1 01 Sep 07:54:03 07:55:25 11° 30° (NNE) 07:57:05 437.405
AIST 1 01 Sep 07:57:32 08:00:46 22° 87° (E) 08:04:05
Cosmos 2499 01 Sep 08:06:13 08:12:59 23° 316° (NW) 08:19:37 435.465 / 435.565
AUBIESAT-1 01 Sep 08:07:54 08:08:49 11° 38° (NE) 08:09:52 437.475
AO-7 01 Sep 08:10:16 08:17:18 31° 318° (NW) 08:24:12 29.400- 29.500
M-CUBED/EXP-1 PRIME 01 Sep 08:12:07 08:14:05 13° 41° (NE) 08:16:09 437.505
BRITE-PL 01 Sep 08:18:49 08:23:46 36° 94° (E) 08:28:57 437.365/2234.400
DANDE 01 Sep 08:22:54 08:24:03 10° 33° (NNE) 08:25:30 436.750
CANX-2 01 Sep 08:25:26 08:26:11 10° 81° (E) 08:27:08 2200.000
Cubesat XI-IV 01 Sep 08:32:07 08:37:25 63° 292° (WNW) 08:42:40 437.490
PCSat 01 Sep 08:35:01 08:39:42 28° 19° (NNE) 08:44:24 145.827
YUBILEINY 01 Sep 08:35:25 08:44:20 78° 76° (ENE) 08:53:10 435.215
UNISAT 6 01 Sep 08:35:44 08:37:10 11° 47° (NE) 08:38:46 437.425
SEEDS 01 Sep 08:45:56 08:47:35 12° 83° (E) 08:49:25 437.485
JAS-2 01 Sep 08:46:58 08:47:54 10° 341° (NNW) 08:48:40 435.910
GOMX 1 01 Sep 08:47:17 08:52:19 38° 94° (E) 08:57:28 467.674
STRAND 1 01 Sep 08:47:42 08:51:27 20° 273° (W) 08:55:06 437.568
DOVE 4 01 Sep 09:00:28 09:05:13 33° 92° (E) 09:10:01 437.250
TIGRISAT 01 Sep 09:02:26 09:05:21 17° 53° (NE) 09:08:21 435.000
COMPASS 1 01 Sep 09:07:03 09:09:29 15° 86° (E) 09:12:02 437.405
Cosmos 2504 01 Sep 09:10:08 09:17:24 30° 52° (NE) 09:24:35 435.465 / 435.565
SO-50 01 Sep 09:10:51 09:15:52 76° 40° (NE) 09:20:47 436.795
AAUSAT CUBESAT 2 01 Sep 09:17:01 09:19:37 16° 87° (E) 09:22:18 437.432
CUTE-I 01 Sep 09:17:26 09:22:11 33° 301° (WNW) 09:26:52 437.470
ANTELSAT 01 Sep 09:18:48 09:22:20 22° 56° (ENE) 09:25:57 437.575/2403.000
HO-68 01 Sep 09:19:49 09:26:26 38° 94° (E) 09:33:05 435.675
Cosmos 2491 01 Sep 09:31:39 09:40:07 61° 92° (E) 09:48:40 435.465 / 435.565
AIST 1 01 Sep 09:33:57 09:38:07 53° 287° (WNW) 09:42:19
CUSAT 1 01 Sep 09:34:28 09:40:33 29° 54° (NE) 09:47:27 437.405
CUBEBUG 2 01 Sep 09:35:24 09:38:15 16° 84° (E) 09:41:13 437.445
AUBIESAT-1 01 Sep 09:38:12 09:42:31 37° 57° (ENE) 09:46:44 437.475
FUNcube-1 01 Sep 09:41:40 09:42:29 11° 80° (E) 09:43:33 145.935
POLYITAN 1 01 Sep 09:41:50 09:44:10 15° 53° (NE) 09:46:39 437.675
UWE-3 01 Sep 09:42:16 09:44:46 15° 83° (E) 09:47:24 435.000/436.395/437.385
M-CUBED/EXP-1 PRIME 01 Sep 09:43:25 09:47:59 46° 60° (ENE) 09:52:25 437.505
POPSAT HIP 1 01 Sep 09:44:18 09:46:41 15° 53° (NE) 09:49:11 437.405
DUCHIFAT 1 01 Sep 09:44:42 09:46:59 15° 53° (NE) 09:49:24 145.980
CUTE 1.7 + AOD 2 01 Sep 09:44:46 09:48:54 47° 99° (E) 09:52:59 437.475
CINEMA 3 01 Sep 09:45:03 09:49:42 36° 94° (E) 09:54:18 145.822/145.860
BUGSAT 1 01 Sep 09:52:31 09:53:55 12° 50° (NE) 09:55:27 437.445
BRITE-PL 01 Sep 09:57:15 10:02:27 51° 293° (WNW) 10:07:53 437.365/2234.400
CANX-2 01 Sep 09:58:46 10:03:02 69° 102° (ESE) 10:07:14 2200.000
QB50P2 01 Sep 10:00:28 10:03:32 20° 57° (ENE) 10:06:43 145.880/145.840
NANOSAT C BR1 01 Sep 10:01:23 10:04:24 19° 57° (ENE) 10:07:31 145.865
AO-7 01 Sep 10:03:02 10:07:40 16° 345° (NNW) 10:12:12 29.400- 29.500
DANDE 01 Sep 10:03:34 10:09:30 31° 57° (ENE) 10:16:34 436.750
UNISAT 6 01 Sep 10:08:27 10:12:58 48° 67° (ENE) 10:17:32 437.425
Cosmos 2499 01 Sep 10:08:34 10:10:31 11° 347° (NNW) 10:12:18 435.465 / 435.565
Cubesat XI-IV 01 Sep 10:13:22 10:16:40 16° 313° (NW) 10:19:49 437.490
QB50P1 01 Sep 10:14:37 10:18:03 24° 60° (ENE) 10:21:34 145.935-145.965
PCSat 01 Sep 10:18:36 10:24:02 68° 43° (NE) 10:29:28 145.827
SEEDS 01 Sep 10:19:56 10:24:10 81° 104° (ESE) 10:28:21 437.485
GOMX 1 01 Sep 10:25:23 10:30:32 47° 294° (WNW) 10:35:47 467.674
Oscar 11 01 Sep 10:26:40 10:30:38 34° 95° (E) 10:34:36 145.826/435.025
YUBILEINY 01 Sep 10:32:52 10:40:30 33° 279° (W) 10:47:55 435.215
TIGRISAT 01 Sep 10:36:42 10:41:25 77° 72° (ENE) 10:46:10 435.000
DOVE 4 01 Sep 10:38:02 10:43:11 53° 293° (WNW) 10:48:21 437.250
COMPASS 1 01 Sep 10:41:33 10:45:45 79° 286° (WNW) 10:49:53 437.405
AAUSAT CUBESAT 2 01 Sep 10:51:35 10:55:45 74° 287° (WNW) 10:59:52 437.432
SO-50 01 Sep 10:51:51 10:56:04 27° 240° (WSW) 11:00:07 436.795
ANTELSAT 01 Sep 10:53:55 10:58:39 77° 255° (WSW) 11:03:25 437.575/2403.000
Cosmos 2504 01 Sep 11:02:19 11:11:00 87° 78° (ENE) 11:19:15 435.465 / 435.565
ISS 01 Sep 11:06:34 11:09:28 29° 160° (SSE) 11:12:21 145.825
HO-68 01 Sep 11:07:30 11:14:37 64° 297° (WNW) 11:21:42 435.675
ZACube-1 01 Sep 11:10:02 11:14:33 59° 101° (E) 11:18:58 437.345
CUBEBUG 2 01 Sep 11:10:54 11:15:42 90° 287° (WNW) 11:20:20 437.445
VELOX 1 01 Sep 11:11:27 11:13:26 13° 84° (E) 11:15:35 145.980
AUBIESAT-1 01 Sep 11:12:39 11:17:09 43° 255° (WSW) 11:21:33 437.475
DELFI C3 01 Sep 11:14:00 11:18:00 64° 102° (ESE) 11:21:58 145.870
POLYITAN 1 01 Sep 11:15:08 11:19:25 76° 72° (ENE) 11:23:45 437.675
FUNcube-1 01 Sep 11:15:19 11:19:51 64° 102° (ESE) 11:24:16 145.935
CUSAT 1 01 Sep 11:16:40 11:24:03 84° 75° (ENE) 11:32:22 437.405
UWE-3 01 Sep 11:17:24 11:22:06 85° 102° (ESE) 11:26:39 435.000/436.395/437.385
POPSAT HIP 1 01 Sep 11:17:38 11:21:54 78° 74° (ENE) 11:26:14 437.405
DUCHIFAT 1 01 Sep 11:17:53 11:22:08 76° 71° (ENE) 11:26:26 145.980
M-CUBED/EXP-1 PRIME 01 Sep 11:18:25 11:22:49 35° 258° (WSW) 11:27:06 437.505
CUTE 1.7 + AOD 2 01 Sep 11:21:00 11:24:38 27° 298° (WNW) 11:28:10 437.475
CINEMA 3 01 Sep 11:22:12 11:26:59 44° 295° (WNW) 11:31:41 145.822/145.860
BUGSAT 1 01 Sep 11:24:33 11:28:35 59° 70° (ENE) 11:32:42 437.445
GONETS M04 01 Sep 11:25:46 11:31:01 17° 34° (NE) 11:36:34
Cosmos 2491 01 Sep 11:29:10 11:37:27 45° 297° (WNW) 11:45:43 435.465 / 435.565
QB50P2 01 Sep 11:34:43 11:39:00 73° 256° (WSW) 11:43:19 145.880/145.840
CANX-2 01 Sep 11:35:24 11:38:33 20° 302° (WNW) 11:41:37 2200.000
NANOSAT C BR1 01 Sep 11:35:32 11:39:47 75° 256° (WSW) 11:44:06 145.865
BRITE-PL 01 Sep 11:37:16 11:40:00 14° 312° (NW) 11:42:37 437.365/2234.400
UNISAT 6 01 Sep 11:45:44 11:49:56 30° 267° (W) 11:54:06 437.425
DANDE 01 Sep 11:46:19 11:53:24 88° 257° (WSW) 12:01:49 436.750
QB50P1 01 Sep 11:49:26 11:53:38 56° 259° (W) 11:57:53 145.935-145.965
50 SAT 01 Sep 11:51:08 11:54:36 29° 95° (E) 11:58:02 437.505
AO-7 01 Sep 11:52:52 11:57:15 16° 13° (NNE) 12:01:44 29.400- 29.500
HUMSAT D 01 Sep 11:53:00 11:57:17 65° 102° (ESE) 12:01:29 437.325/437.525
DX 1 01 Sep 11:55:05 11:59:15 41° 98° (E) 12:03:25 434.975-435.025
SEEDS 01 Sep 11:56:37 11:59:28 18° 304° (WNW) 12:02:13 437.485
PCSat 01 Sep 12:02:23 12:07:11 32° 244° (WSW) 12:11:54 145.827
Oscar 11 01 Sep 12:02:51 12:06:51 37° 295° (WNW) 12:10:49 145.826/435.025
GOMX 1 01 Sep 12:05:10 12:07:36 13° 314° (NW) 12:09:53 467.674
Cosmos 2499 01 Sep 12:05:46 12:08:52 12° 20° (NNE) 12:12:10 435.465 / 435.565
ESTCUBE 1 01 Sep 12:06:11 12:10:08 30° 94° (E) 12:14:07 437.505/2401.250
UKube-1 01 Sep 12:07:14 12:11:27 47° 100° (E) 12:15:40 .
JAS-2 01 Sep 12:07:26 12:11:31 16° 33° (NNE) 12:15:43 435.910
SPROUT 01 Sep 12:13:58 12:15:30 12° 83° (E) 12:17:15 437.525
TIGRISAT 01 Sep 12:15:19 12:18:44 19° 273° (W) 12:22:04 435.000
DOVE 4 01 Sep 12:17:12 12:19:56 14° 312° (NW) 12:22:32 437.250
CUBEBUG 1 01 Sep 12:18:03 12:21:59 32° 94° (E) 12:25:59 437.445
AISAT 01 Sep 12:18:14 12:22:35 47° 99° (E) 12:26:56 437.250
COMPASS 1 01 Sep 12:18:27 12:20:46 14° 306° (NW) 12:23:00 437.405
Oscar 19 01 Sep 12:21:12 12:25:33 29° 58° (ENE) 12:30:00 437.125/150
AAUSAT CUBESAT 2 01 Sep 12:28:33 12:30:41 14° 307° (NW) 12:32:42 437.432
ANTELSAT 01 Sep 12:33:48 12:36:18 14° 277° (W) 12:38:36 437.575/2403.000
ISS 01 Sep 12:42:21 12:45:30 46° 180° (S) 12:48:39 145.825
VELOX 1 01 Sep 12:46:19 12:50:49 78° 106° (ESE) 12:55:19 145.980
ZACube-1 01 Sep 12:46:51 12:50:36 25° 301° (WNW) 12:54:13 437.345
CUBEBUG 2 01 Sep 12:48:26 12:51:47 19° 306° (NW) 12:54:59 437.445
DELFI C3 01 Sep 12:49:44 12:52:42 20° 301° (WNW) 12:55:35 145.870
FUNcube-1 01 Sep 12:52:10 12:55:49 23° 301° (WNW) 12:59:19 145.935
POLYITAN 1 01 Sep 12:52:59 12:55:53 17° 273° (W) 12:58:40 437.675
UWE-3 01 Sep 12:54:43 12:58:05 20° 305° (NW) 13:01:18 435.000/436.395/437.385
Cosmos 2504 01 Sep 12:55:16 13:02:19 29° 282° (WNW) 13:08:56 435.465 / 435.565
POPSAT HIP 1 01 Sep 12:55:34 12:58:22 16° 273° (W) 13:01:04 437.405
DUCHIFAT 1 01 Sep 12:55:40 12:58:30 17° 273° (W) 13:01:14 145.980
HO-68 01 Sep 12:55:55 13:01:14 22° 319° (NW) 13:06:24 435.675
CUSAT 1 01 Sep 12:59:47 13:06:09 31° 274° (W) 13:12:55 437.405
BUGSAT 1 01 Sep 13:01:21 13:04:27 20° 271° (W) 13:07:31 437.445
CINEMA 3 01 Sep 13:01:23 13:03:04 11° 315° (NW) 13:04:34 145.822/145.860
Gurwin Techsat 1B 01 Sep 13:05:00 13:09:15 25° 55° (NE) 13:13:35 435.225
QB50P2 01 Sep 13:14:14 13:15:45 11° 278° (W) 13:17:05 145.880/145.840
NANOSAT C BR1 01 Sep 13:14:52 13:16:28 12° 277° (W) 13:17:53 145.865
TISAT 1 01 Sep 13:15:19 13:18:50 25° 92° (E) 13:22:24 437.305
ITAMSAT 1 01 Sep 13:20:53 13:25:10 28° 57° (ENE) 13:29:32 435.822/435.867
GONETS M04 01 Sep 13:22:23 13:30:48 47° 64° (ENE) 13:39:16
50 SAT 01 Sep 13:25:34 13:29:10 35° 295° (WNW) 13:32:42 437.505
HUMSAT D 01 Sep 13:29:22 13:32:39 21° 302° (WNW) 13:35:49 437.325/437.525
DANDE 01 Sep 13:30:09 13:36:03 27° 274° (W) 13:42:30 436.750
DX 1 01 Sep 13:31:29 13:35:26 33° 298° (WNW) 13:39:21 434.975-435.025
Cosmos 2491 01 Sep 13:32:08 13:37:21 16° 327° (NNW) 13:42:19 435.465 / 435.565
AO-7 01 Sep 13:40:46 13:47:31 29° 40° (NE) 13:54:22 29.400- 29.500
ESTCUBE 1 01 Sep 13:42:52 13:47:11 45° 293° (WNW) 13:51:28 437.505/2401.250
ITUPSAT 1 01 Sep 13:43:08 13:44:16 11° 81° (E) 13:45:38 437.325
UKube-1 01 Sep 13:43:40 13:47:26 28° 299° (WNW) 13:51:08 .
JAS-2 01 Sep 13:47:39 13:54:42 39° 56° (NE) 14:01:44 435.910
SPROUT 01 Sep 13:48:04 13:52:26 75° 104° (ESE) 13:56:47 437.525
CUBEBUG 1 01 Sep 13:54:18 13:58:28 41° 294° (WNW) 14:02:37 437.445
AISAT 01 Sep 13:55:04 13:59:00 30° 299° (WNW) 14:02:53 437.250
Cosmos 2499 01 Sep 13:58:37 14:05:58 29° 50° (NE) 14:13:10 435.465 / 435.565
Oscar 19 01 Sep 13:59:29 14:04:37 63° 257° (WSW) 14:09:50 437.125/150
HORYU 2 01 Sep 14:02:23 14:03:32 11° 47° (NE) 14:04:51 437.375
BEESAT 01 Sep 14:14:22 14:17:52 20° 88° (E) 14:21:27 436.000
ISS 01 Sep 14:18:39 14:21:34 30° 199° (SSW) 14:24:29 145.825
VELOX 1 01 Sep 14:23:37 14:26:54 20° 304° (NW) 14:30:07 145.980
SWISSCUBE 01 Sep 14:39:56 14:44:15 34° 95° (E) 14:48:36 437.505
Gurwin Techsat 1B 01 Sep 14:43:29 14:48:48 76° 255° (WSW) 14:54:10 435.225
HO-68 01 Sep 14:45:04 14:46:27 11° 345° (NNW) 14:47:42 435.675
TISAT 1 01 Sep 14:50:41 14:54:51 50° 292° (WNW) 14:59:00 437.305
ITAMSAT 1 01 Sep 14:59:12 15:04:21 66° 256° (WSW) 15:09:32 435.822/435.867
BEESAT 3 01 Sep 15:07:30 15:09:55 16° 116° (ESE) 15:12:28 437.485
ITUPSAT 1 01 Sep 15:18:30 15:23:15 63° 102° (ESE) 15:27:59 437.325
KKS-1 01 Sep 15:19:05 15:21:49 16° 86° (E) 15:24:41 437.445
GONETS M04 01 Sep 15:19:27 15:28:01 58° 268° (W) 15:36:33
BEESAT 2 01 Sep 15:20:08 15:22:39 16° 116° (ESE) 15:25:16 435.950
ESTCUBE 1 01 Sep 15:22:25 15:23:04 10° 314° (NW) 15:23:36 437.505/2401.250
SPROUT 01 Sep 15:24:53 15:28:04 20° 303° (WNW) 15:31:11 437.525
AO-7 01 Sep 15:30:59 15:39:18 76° 64° (ENE) 15:47:39 29.400- 29.500
JAS-2 01 Sep 15:31:29 15:39:19 73° 257° (WSW) 15:47:09 435.910
HORYU 2 01 Sep 15:34:54 15:39:14 48° 67° (ENE) 15:43:36 437.375
Oscar 19 01 Sep 15:42:59 15:45:10 12° 280° (W) 15:47:06 437.125/150
